FW2972 Weather Reports


time (UTC)temp
C
wind
direction
speed
KPH
gust
KPH
rain 1hr
cm
rain 24hr
cm
rain mn
cm
humidity
%
barometer
mb
20260502181837 23 185 1.6 14.5 0.00 0.00 0.00 51 1024.2
20260502181336 23 157 1.6 9.7 0.00 0.00 0.00 52 1024.1
20260502180833 23 189 3.2 17.7 0.00 0.00 0.00 50 1024.1
20260502180330 23 244 1.6 11.3 0.00 0.00 0.00 51 1024.3
20260502170249 22 274 1.6 8.0 0.00 0.00 0.00 59 1024.5
20260502164237 22 74 3.2 14.5 0.00 0.00 0.00 59 1024.2
20260502163732 21 255 4.8 11.3 0.00 0.00 0.00 62 1024.4
20260502163229 21 28 6.4 12.9 0.00 0.00 0.00 59 1024.3
20260502162726 21 229 4.8 9.7 0.00 0.00 0.00 62 1024.3
20260502162222 21 21 1.6 9.7 0.00 0.00 0.00 66 1024.3
20260502161720 21 104 0.0 6.4 0.00 0.00 0.00 66 1024.2
20260502161216 21 38 1.6 8.0 0.00 0.00 0.00 68 1024.2
20260502160715 21 339 3.2 9.7 0.00 0.00 0.00 67 1024.2
20260502160213 20 170 3.2 12.9 0.00 0.00 0.00 70 1024.3
20260502152132 20 106 0.0 6.4 0.00 0.00 0.00 76 1024.3
20260502151630 19 343 6.4 14.5 0.00 0.00 0.00 75 1024.2
20260502151127 19 40 3.2 9.7 0.00 0.00 0.00 75 1024.2
20260502150624 18 264 4.8 11.3 0.00 0.00 0.00 76 1024.2
20260502150120 18 155 0.0 14.5 0.00 0.00 0.00 76 1024.4
20260502130509 15 118 3.2 11.3 0.00 0.00 0.00 91 1023.0
20260502123452 12 46 0.0 8.0 0.00 0.00 0.00 99 1022.4
20260502122949 12 342 3.2 8.0 0.00 0.00 0.00 99 1022.5
20260502122444 12 92 1.6 11.3 0.00 0.00 0.00 99 1022.5
20260502121943 12 21 3.2 8.0 0.00 0.00 0.00 99 1022.2
20260502121440 11 184 0.0 6.4 0.00 0.00 0.00 99 1022.2
20260502120938 11 8 1.6 6.4 0.00 0.00 0.00 99 1022.3
20260502120433 11 356 3.2 6.4 0.00 0.00 0.00 99 1022.0
20260502115931 11 93 1.6 4.8 0.00 0.00 0.00 99 1022.2
20260502115428 11 89 0.0 8.0 0.00 0.00 0.00 99 1021.8
20260502114924 11 115 0.0 4.8 0.00 0.00 0.00 99 1021.9
20260502114421 11 125 1.6 6.4 0.00 0.00 0.00 99 1021.7
20260502113918 11 34 1.6 4.8 0.00 0.00 0.00 99 1021.7
20260502113416 11 187 1.6 4.8 0.00 0.00 0.00 99 1021.7
20260502112914 11 30 0.0 8.0 0.00 0.00 0.00 99 1021.8
20260502112411 11 9 0.0 11.3 0.00 0.00 0.00 99 1021.8
20260502111909 11 286 1.6 8.0 0.00 0.00 0.00 99 1021.8
20260502111405 11 59 0.0 3.2 0.00 0.00 0.00 99 1021.6
20260502110903 11 113 4.8 4.8 0.00 0.00 0.00 99 1021.8
20260502110401 11 338 0.0 3.2 0.00 0.00 0.00 99 1021.7
20260502105858 11 146 3.2 4.8 0.00 0.00 0.00 99 1021.5
20260502105355 11 60 0.0 4.8 0.00 0.00 0.00 99 1021.5
20260502104853 11 55 0.0 6.4 0.00 0.00 0.00 99 1021.2
20260502104350 11 77 0.0 4.8 0.00 0.00 0.00 99 1021.2
20260502103847 11 147 0.0 6.4 0.00 0.00 0.00 99 1021.0
20260502103344 11 104 0.0 6.4 0.00 0.00 0.00 99 1020.8
20260502102841 11 91 1.6 4.8 0.00 0.00 0.00 99 1020.9
20260502102338 11 61 3.2 4.8 0.00 0.00 0.00 99 1020.8
20260502101835 11 130 0.0 6.4 0.00 0.00 0.00 99 1020.8
20260502101333 11 70 0.0 4.8 0.00 0.00 0.00 99 1020.6
20260502100832 11 124 1.6 4.8 0.00 0.00 0.00 99 1020.6
20260502100331 11 84 1.6 4.8 0.00 0.00 0.00 99 1020.4
20260502091304 11 192 1.6 6.4 0.00 0.00 0.00 99 1019.7
20260502090802 11 156 0.0 9.7 0.00 0.00 0.00 99 1019.9
20260502090258 11 162 3.2 4.8 0.00 0.00 0.00 99 1019.7
20260502071158 12 283 0.0 6.4 0.00 0.00 0.00 99 1019.8
20260502070657 12 103 0.0 8.0 0.00 0.00 0.00 99 1019.7
20260502070155 12 107 0.0 8.0 0.00 0.00 0.00 99 1019.6
20260502065653 12 134 4.8 9.7 0.00 0.00 0.00 99 1019.6
20260502065150 12 48 1.6 8.0 0.00 0.00 0.00 99 1019.5
20260502064649 12 39 3.2 4.8 0.00 0.00 0.00 99 1019.4
20260502064145 12 162 3.2 9.7 0.00 0.00 0.00 99 1019.3
20260502063643 12 56 0.0 8.0 0.00 0.00 0.00 99 1019.2
20260502063141 12 83 3.2 9.7 0.00 0.00 0.00 99 1019.3
20260502062637 13 85 0.0 6.4 0.00 0.00 0.00 99 1019.3
20260502062135 13 86 1.6 8.0 0.00 0.00 0.00 99 1019.3
20260502061633 13 130 0.0 6.4 0.00 0.00 0.00 99 1019.4
20260502061131 12 84 0.0 4.8 0.00 0.00 0.00 99 1019.4
20260502060630 12 119 3.2 6.4 0.00 0.00 0.00 99 1019.1
20260502060127 12 104 0.0 9.7 0.00 0.00 0.00 99 1019.1
20260502055625 12 141 3.2 8.0 0.00 0.00 0.00 99 1019.4
20260502055123 12 210 0.0 4.8 0.00 0.00 0.00 99 1019.3
20260502054622 12 41 4.8 9.7 0.00 0.00 0.00 99 1019.4
20260502054119 12 52 0.0 6.4 0.00 0.00 0.00 99 1019.5
20260502053616 12 102 3.2 9.7 0.00 0.00 0.00 99 1019.7
20260502053113 12 92 0.0 4.8 0.00 0.00 0.00 99 1019.8
20260502052612 12 76 0.0 6.4 0.00 0.00 0.00 99 1019.7
20260502052110 12 88 3.2 4.8 0.00 0.00 0.00 99 1019.6
20260502051607 12 154 3.2 9.7 0.00 0.00 0.00 99 1019.4
20260502051105 12 181 3.2 4.8 0.00 0.00 0.00 99 1019.4
20260502050601 12 280 0.0 8.0 0.00 0.00 0.00 99 1019.6
20260502050058 12 185 1.6 4.8 0.00 8.69 8.69 99 1019.7
20260502045554 12 322 3.2 8.0 0.00 8.69 8.69 99 1019.6
20260502045052 12 40 0.0 11.3 0.00 8.69 8.69 99 1019.7
20260502044548 12 257 3.2 8.0 0.00 8.69 8.69 99 1019.6
20260502044044 12 94 4.8 6.4 0.00 8.69 8.69 99 1019.7
20260502043542 12 175 0.0 6.4 0.00 8.69 8.69 99 1019.6
20260502043038 12 118 1.6 8.0 0.00 8.69 8.69 99 1019.4
20260502042533 12 39 6.4 11.3 0.00 8.69 8.69 99 1019.6
20260502042031 12 347 0.0 6.4 0.00 8.69 8.69 99 1019.7
20260502041529 12 26 0.0 24.1 0.05 8.69 8.69 99 1019.3
20260502041026 12 7 3.2 8.0 0.05 8.69 8.69 99 1019.6
20260502040522 12 102 0.0 11.3 0.18 8.69 8.69 99 1019.5
20260502040020 12 24 3.2 9.7 0.23 8.69 8.69 99 1019.2
20260502035515 12 289 1.6 17.7 0.00 8.64 8.64 99 1018.9
20260502035013 13 34 3.2 9.7 0.00 8.64 8.64 99 1018.9
20260502034511 13 156 3.2 8.0 0.00 8.64 8.64 99 1018.8
20260502034009 13 335 3.2 8.0 0.00 8.64 8.64 99 1019.1
20260502033507 13 28 1.6 8.0 0.00 8.64 8.64 99 1018.6
20260502033004 13 30 1.6 9.7 0.05 8.64 8.64 99 1018.2
20260502032459 13 32 1.6 6.4 0.05 8.64 8.64 99 1018.1
20260502031956 13 155 0.0 9.7 0.00 8.64 8.64 99 1018.1
20260502031455 13 39 3.2 11.3 0.00 8.64 8.64 99 1018.0
20260502030952 13 180 1.6 11.3 0.13 8.64 8.64 99 1017.5
20260502030451 13 7 1.6 8.0 0.13 8.61 8.61 99 1017.2
20260502025948 13 326 0.0 3.2 0.18 8.61 8.61 99 1017.2
20260502025445 13 253 1.6 6.4 0.13 8.61 8.61 99 1017.4
20260502024943 13 64 1.6 8.0 0.05 8.59 8.59 99 1017.6
20260502024441 13 2 0.0 8.0 0.13 8.59 8.59 99 1017.7
20260502023939 13 24 1.6 11.3 0.13 8.56 8.56 99 1017.9
20260502023436 14 52 3.2 11.3 0.05 8.56 8.56 99 1017.7
20260502022933 14 24 0.0 6.4 0.05 8.56 8.56 99 1017.5
20260502022429 14 12 4.8 11.3 0.05 8.56 8.56 99 1017.8
20260502021926 14 4 0.0 14.5 0.05 8.53 8.53 99 1017.7
20260502021424 14 342 1.6 6.4 0.18 8.53 8.53 99 1017.9
20260502020921 14 40 3.2 8.0 0.18 8.53 8.53 99 1017.6
20260502020419 14 128 0.0 8.0 0.05 8.51 8.51 99 1017.6
20260502015915 14 20 3.2 6.4 0.05 8.51 8.51 99 1017.4
20260502015413 14 324 0.0 6.4 0.05 8.48 8.48 99 1017.4
20260502014909 14 8 4.8 6.4 0.18 8.48 8.48 99 1017.1
20260502014406 14 63 3.2 6.4 0.13 8.46 8.46 99 1017.1
20260502013903 14 118 1.6 8.0 0.18 8.46 8.46 99 1017.0
20260502013358 14 171 0.0 4.8 0.23 8.46 8.46 99 1016.7
20260502012855 14 50 0.0 4.8 0.23 8.43 8.43 99 1016.7
20260502012353 14 166 0.0 4.8 0.23 8.41 8.41 99 1016.5
20260502011850 15 19 3.2 8.0 0.13 8.38 8.38 99 1016.5
20260502011346 15 13 0.0 6.4 0.00 8.36 8.36 99 1016.2
20260502010843 14 11 0.0 8.0 0.00 8.36 8.36 99 1015.6
20260502010340 15 14 0.0 11.3 0.05 8.36 8.36 99 1015.2
20260502005837 15 61 1.6 4.8 0.13 8.36 8.36 99 1014.9
20260502005335 15 10 0.0 4.8 0.23 8.33 8.33 99 1014.7
20260502004832 15 5 0.0 3.2 0.43 8.33 8.33 99 1014.8
20260502004327 15 126 1.6 4.8 0.48 8.28 8.28 99 1015.0
20260502003826 15 230 0.0 8.0 0.84 8.23 8.23 99 1015.1
20260502003322 15 260 0.0 4.8 1.27 8.18 8.18 99 1015.3
20260502002819 15 1 1.6 12.9 1.27 8.08 8.08 99 1015.5
20260502002316 15 35 1.6 6.4 0.97 7.95 7.95 99 1015.7
20260502001813 15 66 1.6 4.8 1.45 7.85 7.85 99 1015.2
20260502001311 15 4 3.2 8.0 1.27 7.77 7.77 99 1015.1
20260502000808 15 105 3.2 9.7 0.18 7.59 7.59 99 1014.6
20260502000306 15 172 3.2 8.0 0.00 7.57 7.57 99 1014.6
20260501235802 15 208 3.2 8.0 0.00 7.57 7.57 99 1014.9
20260501235258 15 106 1.6 11.3 0.05 7.57 7.57 99 1014.7
20260501234753 15 106 4.8 12.9 0.05 7.57 7.57 99 1014.6
20260501234251 15 20 1.6 9.7 0.13 7.57 7.57 99 1014.8
20260501233749 15 16 0.0 4.8 0.30 7.54 7.54 99 1014.7
20260501233246 15 14 3.2 9.7 0.30 7.54 7.54 99 1014.2
20260501232742 15 109 1.6 8.0 0.05 7.49 7.49 99 1014.1
20260501232239 15 218 3.2 14.5 0.05 7.49 7.49 99 1014.0
20260501231737 15 93 1.6 8.0 0.18 7.49 7.49 99 1013.9
20260501231235 15 154 0.0 4.8 0.18 7.47 7.47 99 1013.8
20260501230733 15 340 0.0 8.0 0.00 7.44 7.44 99 1014.1
20260501230231 15 156 3.2 9.7 0.05 7.44 7.44 99 1014.3
20260501225723 15 251 3.2 8.0 0.05 7.44 7.44 99 1014.7
20260501225220 15 169 0.0 8.0 0.00 7.44 7.44 99 1014.6
20260501224716 15 239 0.0 8.0 0.00 7.44 7.44 99 1014.4
20260501224214 16 116 3.2 8.0 0.00 7.44 7.44 99 1014.4
20260501223709 16 219 3.2 6.4 0.05 7.44 7.44 99 1014.2
20260501223206 16 110 3.2 8.0 0.00 7.42 7.42 99 1013.9
20260501222702 16 337 4.8 8.0 0.05 7.42 7.42 99 1014.2
20260501222159 16 111 3.2 17.7 0.05 7.42 7.42 99 1014.2
20260501221656 16 120 0.0 9.7 0.05 7.42 7.42 99 1014.8
20260501221153 16 197 1.6 8.0 0.13 7.42 7.42 99 1015.1
20260501220651 16 41 0.0 4.8 0.18 7.42 7.42 99 1015.0
20260501220148 16 17 0.0 3.2 0.05 7.39 7.39 99 1014.9
20260501215645 16 119 0.0 3.2 0.05 7.39 7.39 99 1015.2
20260501215140 16 25 0.0 3.2 0.23 7.39 7.39 99 1015.1
20260501214635 16 209 0.0 4.8 0.30 7.37 7.37 99 1014.5
20260501214131 16 266 1.6 9.7 0.48 7.34 7.34 99 1014.5
20260501213628 16 220 9.7 9.7 0.61 7.32 7.32 99 1013.8
20260501213124 16 168 1.6 9.7 0.36 7.24 7.24 99 1013.4
20260501212621 16 123 3.2 9.7 0.66 7.21 7.21 99 1013.6
20260501212117 16 189 11.3 12.9 0.66 7.19 7.19 99 1013.6
20260501211614 16 106 4.8 8.0 0.48 7.09 7.09 99 1014.1
20260501211112 16 148 3.2 9.7 1.07 7.06 7.06 99 1014.2
20260501210609 16 136 3.2 6.4 1.55 6.99 6.99 99 1013.9
20260501210105 16 184 3.2 6.4 1.19 6.83 6.83 99 1014.2
20260501205601 16 214 0.0 4.8 1.07 6.68 6.68 99 1014.2
20260501205059 16 43 3.2 6.4 1.68 6.63 6.63 99 1014.4
20260501204555 16 269 0.0 6.4 0.61 6.43 6.43 99 1013.9
20260501204051 16 138 3.2 8.0 0.23 6.35 6.35 99 1013.3
20260501203548 16 102 3.2 17.7 0.23 6.30 6.30 99 1013.5
20260501203046 16 140 0.0 8.0 1.19 6.30 6.30 99 1013.1
20260501202543 16 60 3.2 16.1 3.25 6.25 6.25 99 1012.8
20260501202039 16 120 0.0 8.0 3.73 6.02 6.02 99 1012.7
20260501201536 17 76 0.0 11.3 2.87 5.69 5.69 99 1012.8
20260501201033 16 217 0.0 6.4 1.32 5.36 5.36 99 1013.4
20260501200530 16 14 3.2 4.8 0.84 5.18 5.18 99 1012.9
20260501200027 16 69 3.2 9.7 1.68 5.13 5.13 99 1013.5
20260501195525 16 169 1.6 12.9 3.35 5.03 5.03 99 1013.6
20260501195020 16 185 4.8 14.5 4.62 4.78 4.78 99 1013.1
20260501194516 16 136 11.3 14.5 3.17 4.37 4.37 99 1013.0
20260501194012 16 53 0.0 4.8 0.36 3.91 3.91 99 1013.0
20260501193510 16 163 0.0 4.8 0.05 3.86 3.86 99 1013.1
20260501193008 16 251 0.0 6.4 0.13 3.84 3.84 99 1012.7
20260501192504 16 166 1.6 8.0 0.18 3.84 3.84 99 1012.1
20260501192002 16 32 4.8 11.3 0.43 3.81 3.81 99 1012.0
20260501191459 16 83 4.8 12.9 0.30 3.78 3.78 99 1012.8
20260501190956 16 31 0.0 6.4 0.05 3.76 3.76 99 1014.4
20260501190451 16 334 0.0 11.3 0.05 3.73 3.73 99 1014.9
20260501185947 16 141 0.0 4.8 0.13 3.73 3.73 99 1013.9
20260501185443 16 140 1.6 8.0 0.23 3.73 3.73 99 1013.0
20260501184939 17 106 6.4 16.1 0.13 3.71 3.71 99 1012.9
20260501184436 16 20 1.6 14.5 0.05 3.68 3.68 99 1014.2
20260501183930 17 312 3.2 8.0 0.05 3.68 3.68 99 1014.2
20260501183428 17 165 3.2 11.3 0.00 3.68 3.68 99 1013.5
20260501182924 17 136 3.2 14.5 0.00 3.68 3.68 99 1012.2
20260501182421 17 50 3.2 9.7 0.00 3.68 3.68 99 1013.1